Notices

What's New in latest Release from April 7th, 2021:

- Updated Glossary, including Speed of Maximum Gust, and Total Hourly Precipitation

- Updated national and regional climate services offices contacts and prices information

- Addition of station inventory lists for 1981-2010, 1971-2000, and 1961-1990 Normals.

If you haven't already, please take our survey and provide feedback about our website: https://eccc.sondage-survey.ca/f/LanguageSelection.aspx?s=442ca660-fcf1-47c0-95a9-59707d6fd709

Hourly Data Report for July 01, 2018

OTTAWA INTL A
ONTARIO
Current Station Operator: NAVCAN

45°19'00.000" N
75°40'00.000" W
114.90 m
6106001
71628
YOW

Download Data

Hourly Data (July 2018)
Hourly Data Report for July 1, 2018
TIME
LST
Temp Definition
°C
Dew Point Definition
°C
Rel Hum Definition
%
Precip. Amount Definition
mm

Wind Dir Definition
10's deg

Wind Spd Definition
km/h
Visibility Definition
km
Stn Press Definition
kPa
Hmdx Definition


Wind Chill Definition


Weather Definition


00:00 25.5 24.1 92   24 7 24.1 100.01 37   LegendNANA
01:00 25.3 24.1 93   24 8 16.1 100.03 37   Mainly Clear
02:00 24.4 23.6 95   21 9 16.1 100.04 35   LegendNANA
03:00 24.2 23.7 97   25 3 16.1 100.05 35   LegendNANA
04:00 23.6 23.2 98   28 3 4.8 100.10 34   Fog
05:00 23.5 23.0 97   17 8 8.1 100.12 34   Fog
06:00 24.4 23.6 95   19 8 6.4 100.16 35   Fog
07:00 26.4 24.2 88   20 6 6.4 100.17 38   Fog
08:00 28.4 24.9 81   19 4 8.1 100.19 41   Fog
09:00 30.3 25.2 74   19 10 9.7 100.14 43   Haze
10:00 31.8 24.8 66   17 12 16.1 100.16 44   Mainly Clear
11:00 33.5 25.2 61   14 13 16.1 100.15 46   LegendNANA
12:00 33.9 25.3 60   16 17 16.1 100.11 47   LegendNANA
13:00 34.4 25.1 58   17 21 16.1 100.05 47   Mainly Clear
14:00 34.7 25.1 57   16 21 16.1 100.02 47   LegendNANA
15:00 34.3 24.9 57   18 23 16.1 99.98 47   LegendNANA
16:00 33.8 24.9 59   18 21 16.1 99.95 46   Mainly Clear
17:00 33.4 24.3 58   17 19 16.1 99.92 45   LegendNANA
18:00 32.6 23.6 58   19 18 24.1 99.92 43   LegendNANA
19:00 30.5 23.5 66   18 14 24.1 99.92 41   Mainly Clear
20:00 28.8 23.5 73   18 15 24.1 99.90 40   LegendNANA
21:00 26.7 23.1 81   17 9 24.1 100.02 37   LegendNANA
22:00 25.5 22.7 84   18 7 24.1 100.05 35   Mainly Clear
23:00 23.7 21.9 89   18 7 24.1 100.03 33   LegendNANA

Notes on Data Quality.

Legend

  • E = Estimated
  • M = Missing
  • NA = Not Available*
  • [empty] = Indicates an unobserved value
Date modified: